Content
SEND FEEDBACK

Daily
Averages
Monthly
Summary
United States of America

GREENSBURG, INDIANA


Home > North America > United States > Indiana
Elevation: 949 feet     Latitude: 39 20N     Longitude: 085 28W

WEATHER
 
SELECT A DAY
Number of Records: 175,394;   Date Range: 10/15/98 - 9/30/14
 
SHARE

PRINT THIS DATA

[ ← Previous Day ]
WEATHER ALMANAC - MARCH 29, 2014
[ Next Day → ]
[ °C ]   °F
Weather ElementAverageHighLow
Temperature39.5 °F42.1 °F (1:30 pm)37.9 °F (11:53 pm)
Dewpoint34 °F37 °F (1:53 pm)28.9 °F (11:53 pm)
Humidity80.8 %86 % (5:53 am)70 % (11:53 pm)
Barometer30.05 in30.19 in (10:53 pm)29.99 in (1:30 pm)
Wind Speed13.9 mph23 mph (2:45 pm)
Wind Gust31.1 mph (4:53 pm)
Weather ElementAverage
Visibility7.1 mi
Wind DirectionSSW (210 °)

Weather ElementTotal
Precipitation0.97 in
Heating Degree Days25 (Base 65)
Averaged from 33 records on March 29, 2014
WEATHER CONDITIONS BREAKOUT
WIND DIRECTION BREAKOUT
WEATHER BY HOUR - MARCH 29, 2014
[ °C ]   °F
Local TimeTemperatureDewpointHumidityBarometerVisibilityWind DirectionWind SpeedGust SpeedPrecipitationEventsConditions
1:53 AM39.9 °F34.0 °F79 %30.10 in10.0 miNorth (10°)4.6 mphClear
2:53 AM39.9 °F34.0 °F79 %30.07 in9.0 miNE (40°)10.4 mphClear
3:53 AM39.9 °F34.0 °F79 %30.04 in9.0 miNNE (20°)10.4 mphPartly Cloudy
4:53 AM39.9 °F35.1 °F83 %30.02 in8.0 miNNE (30°)9.2 mph0.00 inRainLight Rain
5:53 AM39.0 °F35.1 °F86 %30.03 in4.0 miNorth (360°)10.4 mph0.17 inRainRain
6:53 AM39.0 °F35.1 °F86 %30.04 in4.0 miNorth (360°)10.4 mph0.17 inRainRain
7:30 AM39.0 °F35.1 °F86 %30.02 in5.0 miNorth (10°)10.4 mph0.05 inRainLight Rain
7:53 AM39.0 °F35.1 °F86 %30.03 in4.0 miNNE (20°)12.7 mph0.08 inRainLight Rain
8:06 AM39.0 °F35.1 °F86 %30.01 in3.0 miNNE (30°)13.8 mph0.04 inRainRain
8:53 AM39.0 °F35.1 °F86 %30.03 in2.5 miNorth (10°)10.4 mph0.18 inRainRain
9:28 AM39.0 °F35.1 °F86 %30.01 in3.0 miNorth (10°)11.5 mph0.07 inRainLight Rain
9:53 AM39.0 °F35.1 °F86 %30.03 in3.0 miNorth (10°)13.8 mph0.09 inRainLight Rain
10:53 AM39.9 °F35.1 °F83 %30.04 in4.0 miNorth (10°)12.7 mph0.05 inRainLight Rain
11:53 AM39.9 °F35.1 °F83 %30.04 in4.0 miNorth (10°)12.7 mph0.03 inRainLight Rain
12:53 PM39.9 °F36.0 °F86 %30.01 in5.0 miNNE (20°)12.7 mph0.02 inRainLight Rain
1:30 PM42.1 °F36.0 °F79 %29.99 in9.0 miNNE (20°)12.7 mph0.00 inOvercast
1:53 PM42.1 °F37.0 °F82 %30.01 in10.0 miNorth (360°)13.8 mph0.00 inOvercast
2:45 PM39.0 °F34.0 °F82 %30.00 in8.0 miNNW (340°)23.0 mph28.8 mph0.01 inOvercast
2:53 PM39.0 °F34.0 °F82 %30.02 in10.0 miNorth (350°)18.4 mph0.01 inOvercast
3:02 PM39.0 °F34.0 °F82 %30.00 in10.0 miNorth (360°)20.7 mphOvercast
3:53 PM39.0 °F34.0 °F82 %30.03 in10.0 miNorth (360°)18.4 mphOvercast
4:39 PM39.0 °F32.0 °F76 %30.03 in10.0 miNorth (360°)17.3 mph29.9 mphOvercast
4:46 PM39.0 °F33.1 °F79 %30.03 in10.0 miNorth (360°)21.9 mph27.6 mphOvercast
4:53 PM39.0 °F32.0 °F76 %30.05 in10.0 miNorth (360°)20.7 mph31.1 mphOvercast
5:32 PM39.0 °F33.1 °F79 %30.05 in7.0 miNorth (360°)17.3 mph26.5 mphOvercast
5:53 PM39.0 °F34.0 °F82 %30.08 in5.0 miNorth (350°)13.8 mphHaze
6:34 PM39.9 °F34.0 °F79 %30.08 in6.0 miNNW (340°)13.8 mphHaze
6:53 PM39.9 °F34.0 °F79 %30.10 in6.0 miNNW (340°)13.8 mphHaze
7:53 PM39.9 °F33.1 °F77 %30.12 in8.0 miNNW (340°)15.0 mphOvercast
8:53 PM39.9 °F32.0 °F73 %30.15 in9.0 miNNW (340°)15.0 mphOvercast
9:53 PM39.9 °F32.0 °F73 %30.17 in9.0 miNorth (350°)11.5 mphOvercast
10:53 PM39.0 °F30.9 °F73 %30.19 in10.0 miNorth (350°)11.5 mphOvercast
11:53 PM37.9 °F28.9 °F70 %30.19 in10.0 miNNW (340°)12.7 mphMostly Cloudy
Hourly data recorded from KGEZ, located miles away from Greensburg, Indiana







STORIES FROM OUR PARTNERS